Time,TemperatureF,DewpointF,PressureIn,WindDirection,WindDirectionDegrees,WindSpeedMPH,WindSpeedGustMPH,Humidity,HourlyPrecipIn,Conditions,Clouds,dailyrainin,SoftwareType,DateUTC
2013-07-27 00:13:00,64.0,61.0,30.00,SW,225,0.0,3.0,90,0.00,,,0.00,weatherlink.com 1.10,2013-07-27 04:13:00,
2013-07-27 00:28:00,63.9,61.0,30.00,West,276,0.0,3.0,90,0.00,,,0.00,weatherlink.com 1.10,2013-07-27 04:28:00,
2013-07-27 00:43:00,63.9,61.0,30.00,SSE,163,0.0,2.0,90,0.00,,,0.00,weatherlink.com 1.10,2013-07-27 04:43:00,
2013-07-27 00:58:00,64.1,61.0,29.99,SSE,153,0.0,4.0,90,0.00,,,0.00,weatherlink.com 1.10,2013-07-27 04:58:00,
2013-07-27 01:14:00,64.1,61.0,29.99,WNW,288,0.0,3.0,90,0.00,,,0.00,weatherlink.com 1.10,2013-07-27 05:14:00,
2013-07-27 01:29:00,64.0,61.0,29.99,West,264,1.0,2.0,90,0.00,,,0.00,weatherlink.com 1.10,2013-07-27 05:29:00,
2013-07-27 01:44:00,64.2,61.0,29.98,WSW,239,0.0,6.0,90,0.00,,,0.00,weatherlink.com 1.10,2013-07-27 05:44:00,
2013-07-27 01:59:00,63.8,61.0,29.98,West,281,0.0,1.0,91,0.00,,,0.00,weatherlink.com 1.10,2013-07-27 05:59:00,
2013-07-27 02:14:00,63.5,61.0,29.97,WSW,250,1.0,1.0,91,0.00,,,0.00,weatherlink.com 1.10,2013-07-27 06:14:00,
2013-07-27 02:29:00,63.4,61.0,29.97,WNW,283,0.0,2.0,91,0.00,,,0.00,weatherlink.com 1.10,2013-07-27 06:29:00,
2013-07-27 02:44:00,63.3,61.0,29.97,WSW,255,0.0,3.0,91,0.00,,,0.00,weatherlink.com 1.10,2013-07-27 06:44:00,
2013-07-27 02:59:00,63.4,61.0,29.97,SSW,198,1.0,2.0,92,0.00,,,0.00,weatherlink.com 1.10,2013-07-27 06:59:00,
2013-07-27 03:14:00,63.6,61.0,29.97,SSW,203,1.0,4.0,92,0.00,,,0.00,weatherlink.com 1.10,2013-07-27 07:14:00,
2013-07-27 03:29:00,63.8,61.0,29.96,SW,225,1.0,4.0,91,0.00,,,0.00,weatherlink.com 1.10,2013-07-27 07:29:00,
2013-07-27 03:44:00,63.5,61.0,29.96,WSW,243,0.0,2.0,92,0.00,,,0.00,weatherlink.com 1.10,2013-07-27 07:44:00,
2013-07-27 03:59:00,63.3,61.0,29.96,SW,215,0.0,1.0,92,0.00,,,0.00,weatherlink.com 1.10,2013-07-27 07:59:00,
2013-07-27 04:14:00,63.2,61.0,29.96,South,172,0.0,3.0,92,0.00,,,0.00,weatherlink.com 1.10,2013-07-27 08:14:00,
2013-07-27 04:29:00,63.5,61.0,29.95,South,172,1.0,3.0,91,0.00,,,0.00,weatherlink.com 1.10,2013-07-27 08:29:00,
2013-07-27 04:44:00,63.9,61.0,29.95,WSW,246,0.0,5.0,90,0.00,,,0.00,weatherlink.com 1.10,2013-07-27 08:44:00,
2013-07-27 04:59:00,63.9,61.0,29.95,WSW,256,0.0,3.0,90,0.00,,,0.00,weatherlink.com 1.10,2013-07-27 08:59:00,
2013-07-27 05:14:00,63.9,61.0,29.95,West,259,0.0,3.0,91,0.00,,,0.00,weatherlink.com 1.10,2013-07-27 09:14:00,
2013-07-27 05:29:00,64.3,61.0,29.94,SW,224,1.0,5.0,90,0.00,,,0.00,weatherlink.com 1.10,2013-07-27 09:29:00,
2013-07-27 05:44:00,64.8,62.0,29.94,SW,227,1.0,6.0,89,0.00,,,0.00,weatherlink.com 1.10,2013-07-27 09:44:00,
2013-07-27 05:59:00,64.8,62.0,29.94,WSW,253,3.0,6.0,90,0.00,,,0.00,weatherlink.com 1.10,2013-07-27 09:59:00,
2013-07-27 06:14:00,64.7,62.0,29.94,SW,215,2.0,4.0,90,0.00,,,0.00,weatherlink.com 1.10,2013-07-27 10:14:00,
2013-07-27 06:29:00,64.5,62.0,29.94,WNW,284,0.0,4.0,90,0.00,,,0.00,weatherlink.com 1.10,2013-07-27 10:29:00,
2013-07-27 06:44:00,64.6,62.0,29.94,SSW,195,0.0,5.0,90,0.00,,,0.00,weatherlink.com 1.10,2013-07-27 10:44:00,
2013-07-27 06:59:00,64.9,62.0,29.94,WSW,245,0.0,5.0,89,0.00,,,0.00,weatherlink.com 1.10,2013-07-27 10:59:00,
2013-07-27 07:14:00,65.0,62.0,29.95,South,178,3.0,4.0,89,0.00,,,0.00,weatherlink.com 1.10,2013-07-27 11:14:00,
2013-07-27 07:29:00,65.0,62.0,29.95,West,259,1.0,4.0,90,0.00,,,0.00,weatherlink.com 1.10,2013-07-27 11:29:00,
2013-07-27 07:44:00,65.1,62.0,29.95,SSW,205,0.0,3.0,90,0.00,,,0.00,weatherlink.com 1.10,2013-07-27 11:44:00,
2013-07-27 07:59:00,65.4,63.0,29.95,SW,218,1.0,5.0,90,0.00,,,0.00,weatherlink.com 1.10,2013-07-27 11:59:00,
2013-07-27 08:14:00,65.8,63.0,29.95,SSW,195,2.0,5.0,89,0.00,,,0.00,weatherlink.com 1.10,2013-07-27 12:14:00,
2013-07-27 08:29:00,66.6,63.0,29.95,WSW,257,3.0,3.0,88,0.00,,,0.00,weatherlink.com 1.10,2013-07-27 12:29:00,
2013-07-27 08:44:00,66.8,63.0,29.96,South,188,1.0,7.0,88,0.00,,,0.00,weatherlink.com 1.10,2013-07-27 12:44:00,
2013-07-27 08:59:00,66.9,63.0,29.96,SSW,211,1.0,5.0,88,0.00,,,0.00,weatherlink.com 1.10,2013-07-27 12:59:00,
2013-07-27 09:14:00,67.2,64.0,29.96,SW,218,1.0,6.0,88,0.00,,,0.00,weatherlink.com 1.10,2013-07-27 13:14:00,
2013-07-27 09:29:00,67.3,64.0,29.96,SW,218,1.0,6.0,88,0.00,,,0.00,weatherlink.com 1.10,2013-07-27 13:29:00,
2013-07-27 09:44:00,67.1,64.0,29.96,WSW,256,1.0,5.0,88,0.00,,,0.00,weatherlink.com 1.10,2013-07-27 13:44:00,
2013-07-27 09:59:00,66.9,63.0,29.96,West,263,3.0,7.0,88,0.00,,,0.00,weatherlink.com 1.10,2013-07-27 13:59:00,
2013-07-27 10:14:00,67.3,64.0,29.95,SW,235,1.0,4.0,89,0.00,,,0.00,weatherlink.com 1.10,2013-07-27 14:14:00,
2013-07-27 10:29:00,66.9,64.0,29.95,West,269,0.0,4.0,89,0.00,,,0.00,weatherlink.com 1.10,2013-07-27 14:29:00,
2013-07-27 10:44:00,66.7,63.0,29.94,SSW,204,2.0,6.0,89,0.00,,,0.00,weatherlink.com 1.10,2013-07-27 14:44:00,
2013-07-27 10:59:00,67.3,64.0,29.94,SW,214,1.0,3.0,89,0.00,,,0.00,weatherlink.com 1.10,2013-07-27 14:59:00,
2013-07-27 11:14:00,67.5,65.0,29.94,West,265,0.0,2.0,90,0.00,,,0.00,weatherlink.com 1.10,2013-07-27 15:14:00,
2013-07-27 11:30:00,67.7,65.0,29.94,SSW,211,1.0,2.0,91,0.00,,,0.00,weatherlink.com 1.10,2013-07-27 15:30:00,
2013-07-27 11:45:00,67.8,65.0,29.94,West,262,0.0,3.0,91,0.00,,,0.00,weatherlink.com 1.10,2013-07-27 15:45:00,
2013-07-27 12:00:00,67.8,65.0,29.94,SSW,205,0.0,4.0,91,0.00,,,0.00,weatherlink.com 1.10,2013-07-27 16:00:00,
2013-07-27 12:15:00,68.2,66.0,29.93,West,262,0.0,3.0,91,0.00,,,0.00,weatherlink.com 1.10,2013-07-27 16:15:00,
2013-07-27 12:30:00,68.1,65.0,29.93,SW,226,0.0,5.0,91,0.00,,,0.00,weatherlink.com 1.10,2013-07-27 16:30:00,
2013-07-27 12:45:00,67.8,65.0,29.93,West,271,0.0,3.0,91,0.00,,,0.00,weatherlink.com 1.10,2013-07-27 16:45:00,
2013-07-27 13:00:00,67.6,65.0,29.93,SSW,204,1.0,3.0,92,0.00,,,0.00,weatherlink.com 1.10,2013-07-27 17:00:00,
2013-07-27 13:15:00,67.4,65.0,29.92,NE,40,1.0,4.0,91,0.00,,,0.00,weatherlink.com 1.10,2013-07-27 17:15:00,
2013-07-27 13:30:00,67.3,65.0,29.91,SW,226,0.0,5.0,91,0.01,,,0.01,weatherlink.com 1.10,2013-07-27 17:30:00,
2013-07-27 13:45:00,67.1,65.0,29.91,West,270,2.0,5.0,91,0.01,,,0.01,weatherlink.com 1.10,2013-07-27 17:45:00,
2013-07-27 14:00:00,67.3,65.0,29.90,SSW,212,0.0,7.0,91,0.01,,,0.01,weatherlink.com 1.10,2013-07-27 18:00:00,
2013-07-27 14:15:00,67.7,65.0,29.90,WSW,243,1.0,6.0,92,0.01,,,0.01,weatherlink.com 1.10,2013-07-27 18:15:00,
2013-07-27 14:31:00,67.9,65.0,29.90,WSW,246,2.0,6.0,91,0.00,,,0.01,weatherlink.com 1.10,2013-07-27 18:31:00,
2013-07-27 14:46:00,68.1,65.0,29.89,WSW,238,1.0,6.0,91,0.00,,,0.01,weatherlink.com 1.10,2013-07-27 18:46:00,
2013-07-27 15:01:00,68.1,65.0,29.89,SW,226,0.0,7.0,90,0.00,,,0.01,weatherlink.com 1.10,2013-07-27 19:01:00,
2013-07-27 15:16:00,67.6,65.0,29.89,SSW,195,1.0,6.0,90,0.00,,,0.01,weatherlink.com 1.10,2013-07-27 19:16:00,
2013-07-27 15:31:00,67.0,64.0,29.89,WSW,243,0.0,5.0,91,0.01,,,0.02,weatherlink.com 1.10,2013-07-27 19:31:00,
2013-07-27 15:46:00,66.8,65.0,29.88,SW,222,1.0,5.0,92,0.01,,,0.02,weatherlink.com 1.10,2013-07-27 19:46:00,
2013-07-27 16:01:00,67.2,65.0,29.88,West,276,1.0,5.0,91,0.01,,,0.02,weatherlink.com 1.10,2013-07-27 20:01:00,
2013-07-27 16:16:00,68.9,66.0,29.88,SW,221,1.0,5.0,90,0.01,,,0.02,weatherlink.com 1.10,2013-07-27 20:16:00,
2013-07-27 16:31:00,68.6,66.0,29.87,West,278,1.0,3.0,90,0.00,,,0.02,weatherlink.com 1.10,2013-07-27 20:31:00,
2013-07-27 16:46:00,66.9,64.0,29.88,WSW,238,2.0,4.0,91,0.04,,,0.06,weatherlink.com 1.10,2013-07-27 20:46:00,
2013-07-27 17:01:00,66.7,64.0,29.88,South,191,1.0,5.0,92,0.04,,,0.06,weatherlink.com 1.10,2013-07-27 21:01:00,
2013-07-27 17:16:00,66.4,64.0,29.88,WSW,242,0.0,5.0,92,0.04,,,0.06,weatherlink.com 1.10,2013-07-27 21:16:00,
2013-07-27 17:31:00,66.6,65.0,29.87,West,264,1.0,3.0,93,0.04,,,0.06,weatherlink.com 1.10,2013-07-27 21:31:00,
2013-07-27 17:46:00,66.4,64.0,29.86,SSW,207,1.0,4.0,93,0.00,,,0.06,weatherlink.com 1.10,2013-07-27 21:46:00,
2013-07-27 18:01:00,67.0,65.0,29.86,SW,222,1.0,4.0,93,0.00,,,0.06,weatherlink.com 1.10,2013-07-27 22:01:00,
2013-07-27 18:16:00,66.8,65.0,29.86,NW,314,0.0,4.0,92,0.00,,,0.06,weatherlink.com 1.10,2013-07-27 22:16:00,
2013-07-27 18:31:00,66.6,65.0,29.86,SW,236,0.0,3.0,93,0.00,,,0.06,weatherlink.com 1.10,2013-07-27 22:31:00,
2013-07-27 18:46:00,66.2,64.0,29.87,West,266,0.0,4.0,92,0.00,,,0.06,weatherlink.com 1.10,2013-07-27 22:46:00,
2013-07-27 19:31:00,64.6,62.0,29.88,SSW,208,1.0,4.0,91,0.00,,,0.06,weatherlink.com 1.10,2013-07-27 23:31:00,
2013-07-27 20:01:00,64.6,62.0,29.88,West,276,5.0,6.0,92,0.00,,,0.06,weatherlink.com 1.10,2013-07-28 00:01:00,
2013-07-27 20:16:00,65.0,62.0,29.88,ENE,68,1.0,5.0,91,0.00,,,0.06,weatherlink.com 1.10,2013-07-28 00:16:00,
2013-07-27 20:46:00,65.2,62.0,29.87,East,79,3.0,6.0,90,0.00,,,0.06,weatherlink.com 1.10,2013-07-28 00:46:00,
2013-07-27 21:01:00,65.0,62.0,29.87,WSW,240,6.0,7.0,89,0.00,,,0.06,weatherlink.com 1.10,2013-07-28 01:01:00,
2013-07-27 21:16:00,65.0,61.0,29.88,SW,233,1.0,7.0,88,0.00,,,0.06,weatherlink.com 1.10,2013-07-28 01:16:00,
2013-07-27 21:31:00,65.1,61.0,29.88,ESE,106,0.0,8.0,86,0.00,,,0.06,weatherlink.com 1.10,2013-07-28 01:31:00,
2013-07-27 21:46:00,65.2,61.0,29.88,WSW,249,2.0,5.0,86,0.00,,,0.06,weatherlink.com 1.10,2013-07-28 01:46:00,
2013-07-27 22:16:00,64.9,61.0,29.89,SW,224,2.0,5.0,88,0.00,,,0.06,weatherlink.com 1.10,2013-07-28 02:16:00,
2013-07-27 22:31:00,65.1,61.0,29.88,SW,226,0.0,6.0,87,0.00,,,0.06,weatherlink.com 1.10,2013-07-28 02:31:00,
2013-07-27 22:46:00,65.1,61.0,29.88,WSW,252,1.0,4.0,87,0.00,,,0.06,weatherlink.com 1.10,2013-07-28 02:46:00,
2013-07-27 23:01:00,65.0,61.0,29.87,SSE,158,2.0,6.0,88,0.00,,,0.06,weatherlink.com 1.10,2013-07-28 03:01:00,
2013-07-27 23:16:00,65.3,62.0,29.88,WSW,238,1.0,8.0,88,0.00,,,0.06,weatherlink.com 1.10,2013-07-28 03:16:00,
2013-07-27 23:31:00,65.2,62.0,29.88,SSW,201,2.0,6.0,89,0.00,,,0.06,weatherlink.com 1.10,2013-07-28 03:31:00,
2013-07-27 23:46:00,65.4,62.0,29.87,SSE,159,1.0,8.0,88,0.00,,,0.06,weatherlink.com 1.10,2013-07-28 03:46:00,